GFSNGP_850_spd_024.txt.gz
Wind_Speed
5 3 2 1 2 2 5 5 6 8 8 10 6 8 18 15 7 9 26 31 36 39 42 43 43 42 40 33 32 32 34 32 29 23 17 14 18 19 16 11 12 12 19 19
3 2 2 2 5 5 5 3 5 5 6 4 7 11 13 6 9 13 11 7 12 32 37 39 40 40 36 33 34 34 35 33 26 20 18 22 23 19 10 8 6 15 18 23
4 4 4 5 7 6 5 3 4 5 4 5 6 9 10 12 10 9 12 12 9 4 8 23 33 35 35 34 35 35 33 28 26 23 25 28 24 18 9 9 16 17 23 23
3 3 2 7 5 4 8 5 6 8 5 11 15 20 20 16 19 16 13 10 8 5 2 5 13 22 28 32 34 34 32 31 27 28 30 26 21 11 8 11 14 23 24 19
4 3 4 5 3 5 5 1 3 6 6 14 19 20 14 15 14 13 9 6 3 3 5 6 12 20 28 31 32 32 31 27 25 22 18 6 4 12 13 9 20 22 22 24
2 4 6 7 4 3 6 2 5 9 5 7 7 3 3 7 5 4 4 3 3 5 7 10 13 20 26 28 31 30 26 23 17 12 4 7 18 16 10 18 20 22 23 22
2 2 7 8 7 3 5 6 9 15 14 7 4 5 6 10 7 5 4 4 3 3 7 6 9 16 22 25 26 21 17 11 11 13 17 23 6 13 17 19 20 21 22 20
3 2 6 8 4 7 7 12 17 13 12 16 16 14 14 11 9 7 6 7 6 4 7 7 8 11 14 16 14 13 19 20 18 25 17 6 14 17 17 17 19 18 18 20
8 6 6 9 6 21 20 18 14 18 16 14 13 14 14 14 12 10 9 9 9 9 10 9 6 3 1 3 7 10 15 13 7 6 11 15 16 16 16 16 18 19 17 17
4 2 2 9 16 18 21 20 20 17 16 10 14 15 14 12 11 10 10 10 10 9 9 7 4 2 2 3 4 5 5 7 11 13 15 15 16 16 18 18 19 20 20 23
3 2 18 14 20 23 24 22 20 18 15 14 14 16 14 14 13 11 10 9 7 8 9 9 8 8 8 7 7 9 11 13 15 16 17 18 18 19 20 21 21 22 22 25
5 17 9 8 17 20 22 18 16 14 17 15 13 16 13 14 12 10 10 11 10 11 10 10 8 8 9 11 12 13 15 16 17 18 19 21 23 25 23 24 25 24 26 27
10 19 18 25 19 16 18 16 14 14 15 17 15 13 12 15 14 14 15 13 11 9 7 6 5 6 8 11 14 17 19 21 21 22 24 27 27 29 32 30 29 29 28 23
23 28 21 21 13 16 15 17 17 19 19 18 19 19 19 19 17 14 12 9 5 3 3 4 6 8 11 14 15 16 17 19 22 25 28 29 30 33 34 37 39 40 37 32
24 7 18 21 20 19 19 23 24 24 23 23 20 18 16 15 13 10 6 2 2 4 4 5 6 8 12 15 18 20 23 25 27 29 31 31 33 35 36 38 37 41 44 37
17 17 22 22 23 23 23 22 22 22 20 20 18 15 13 9 6 3 1 1 2 3 5 7 10 13 18 23 26 27 29 29 30 31 33 33 33 31 32 35 35 36 37 38
28 22 22 23 26 25 22 21 21 21 18 14 12 10 8 7 6 5 3 3 4 5 7 11 14 18 22 26 29 30 30 31 29 28 27 26 26 27 30 32 34 36 38 40
10 17 18 24 27 26 24 22 19 16 14 12 12 11 9 6 5 4 4 4 4 6 10 14 18 23 25 26 26 26 25 25 25 24 25 25 23 22 25 31 33 35 38 36
14 18 23 23 24 24 21 18 16 14 14 13 11 9 7 5 4 4 5 5 8 12 16 19 22 23 24 24 24 24 25 25 24 25 24 24 24 24 23 21 18 16 17 12
20 21 24 24 21 16 18 15 15 15 14 11 9 6 4 2 3 5 9 11 12 15 18 21 22 22 23 23 23 23 23 23 23 24 23 23 22 22 22 23 24 23 20 17
24 24 22 22 19 16 16 15 14 14 13 10 6 3 1 3 5 6 8 11 12 15 19 20 21 23 24 24 23 23 22 22 23 23 23 23 23 22 22 23 23 23 23 22
23 21 18 17 19 18 15 14 13 11 9 6 3 1 2 4 8 10 11 12 14 17 18 20 21 23 23 23 22 22 22 23 23 23 23 23 23 23 23 24 24 24 23 23
15 16 18 18 17 16 16 13 10 8 5 4 2 3 5 7 8 9 11 14 15 17 18 20 21 22 23 23 23 23 23 23 23 23 24 23 23 23 23 24 24 24 23 22
17 17 17 16 15 15 14 11 9 6 4 3 4 6 8 8 10 12 13 15 17 18 19 20 21 22 22 22 23 23 22 22 22 22 22 22 22 22 23 23 23 23 22 22
15 15 15 16 14 12 10 10 8 5 4 4 6 9 10 10 11 12 14 17 19 20 20 20 21 21 21 22 22 22 22 22 21 22 22 21 22 23 23 23 23 23 22 22
16 18 19 16 15 12 10 11 8 5 6 7 8 10 11 12 12 13 16 19 20 21 20 20 20 20 20 21 22 22 22 21 20 21 21 21 22 23 23 22 22 22 22 22
18 19 18 16 10 7 6 5 4 7 8 8 10 11 12 12 13 16 18 20 21 20 19 19 20 20 20 20 20 20 21 20 20 20 20 21 22 22 23 23 23 23 23 22

GFSNGP_850_spd_030.txt.gz
Wind_Speed
5 4 5 5 5 9 7 5 6 7 7 9 8 6 10 13 14 10 12 13 15 17 19 22 24 27 26 28 31 32 31 29 31 31 28 29 29 27 25 21 20 18 15 13
4 1 1 4 6 6 5 4 5 6 7 8 5 4 5 2 1 5 3 1 4 7 10 15 19 21 25 28 31 33 30 31 33 33 32 30 28 26 25 24 24 22 18 17
5 2 4 6 7 8 5 5 7 7 10 5 1 2 3 8 13 16 16 14 11 8 5 2 2 5 10 16 22 26 29 32 35 35 31 29 27 27 26 25 23 22 21 13
3 3 2 7 1 4 9 7 5 5 3 6 10 9 10 10 14 16 14 14 12 9 6 4 4 5 8 12 15 18 23 28 29 27 24 24 22 19 20 20 18 12 16 25
5 4 5 4 5 8 8 9 7 6 6 14 20 18 11 9 11 13 12 11 10 9 7 6 6 7 9 10 11 11 15 18 18 18 18 19 20 19 14 9 16 21 28 24
3 5 8 8 5 7 4 4 8 12 9 12 12 4 4 9 10 11 9 8 7 6 6 6 8 9 9 6 4 5 5 7 10 16 19 17 18 18 20 26 26 29 15 18
2 3 7 7 4 11 5 8 18 26 26 20 5 5 16 13 10 8 7 7 6 7 6 6 6 6 6 6 5 5 5 7 9 10 13 16 20 23 23 17 14 17 22 23
3 3 7 11 6 9 8 5 28 28 28 17 11 14 17 13 9 8 7 8 8 9 10 11 11 8 12 13 12 7 2 4 6 7 9 10 8 10 13 17 20 22 25 26
9 7 5 14 5 15 10 15 26 28 24 20 19 20 18 16 13 11 11 11 11 11 13 14 13 11 10 9 4 2 3 4 5 6 8 10 12 15 17 19 22 24 26 29
4 5 6 9 15 11 15 23 27 24 24 22 21 22 21 18 16 14 13 12 11 11 13 13 9 7 8 7 5 4 3 4 6 8 11 13 15 17 20 21 23 26 28 31
3 3 1 11 16 15 18 19 23 21 22 24 23 24 21 20 18 16 14 13 10 10 11 10 8 6 6 4 3 4 7 9 11 14 16 18 19 21 23 24 25 29 31 32
7 16 13 11 21 21 21 24 23 24 23 20 21 23 22 20 18 16 15 13 12 11 9 9 6 4 2 3 6 9 11 13 15 18 21 23 27 30 29 30 31 31 31 29
7 19 15 14 23 23 22 20 21 21 21 24 21 20 21 22 19 17 15 13 11 11 8 6 3 1 3 6 9 12 15 17 20 23 24 26 28 31 37 36 32 31 28 25
15 24 12 20 14 22 22 23 21 21 21 21 23 23 22 22 22 18 16 14 11 9 6 3 1 3 5 9 12 15 17 19 21 23 25 26 27 28 29 32 37 37 33 30
22 18 15 24 25 26 23 25 25 25 25 25 23 23 22 22 21 19 17 13 9 7 5 2 2 5 8 12 15 17 19 21 23 24 24 25 26 27 27 27 28 30 33 32
13 13 21 27 30 28 27 27 28 28 27 27 27 25 22 21 21 18 14 11 8 5 2 2 5 8 11 14 17 18 20 21 23 24 25 26 26 26 26 26 27 28 29 31
21 17 24 27 30 29 28 27 25 29 28 26 25 25 24 21 18 15 13 11 7 4 2 5 8 11 14 17 19 20 21 22 23 23 24 25 25 25 25 25 26 27 27 28
6 12 19 24 32 30 27 25 25 26 26 25 25 22 18 16 14 14 12 9 5 2 4 7 10 14 16 18 19 21 21 22 22 23 23 23 23 24 24 25 26 27 29 28
8 17 18 22 25 27 27 28 27 25 26 24 20 18 15 14 12 11 9 5 2 4 6 9 13 15 17 18 19 20 21 20 20 21 22 23 22 23 24 24 26 26 27 28
17 16 17 21 22 22 26 26 26 24 20 19 17 19 17 14 11 8 6 5 4 6 9 12 15 16 17 18 19 20 20 20 21 22 22 22 23 23 23 24 25 26 27 27
15 17 20 23 24 24 23 20 18 20 19 20 18 17 14 13 9 7 5 5 7 9 11 14 16 16 16 17 18 19 20 20 21 21 22 23 23 23 23 24 24 25 26 26
17 20 22 23 22 20 17 15 14 19 21 18 15 13 11 10 7 6 5 6 7 10 13 15 17 17 17 17 17 19 20 20 21 21 22 22 23 24 24 24 25 25 26 26
21 21 20 17 17 17 17 16 16 16 16 14 12 10 8 7 6 5 6 8 10 12 15 17 17 17 17 17 17 18 19 20 20 21 22 22 23 23 24 25 25 25 26 26
17 15 16 15 14 17 19 17 16 14 12 11 9 7 5 4 5 6 8 9 12 14 16 17 17 17 17 17 18 19 20 20 21 21 21 22 23 23 23 24 25 25 25 25
14 14 13 15 16 15 14 14 13 11 9 6 4 3 4 7 9 9 11 13 14 15 17 18 17 17 17 19 19 19 20 20 20 21 21 22 22 22 23 24 24 25 25 25
13 13 13 11 10 9 8 7 6 5 5 5 5 7 8 9 11 12 14 14 15 16 17 18 17 17 18 19 20 20 20 19 19 20 20 21 21 22 23 24 24 24 24 24
13 12 10 10 9 7 6 5 4 4 6 7 8 8 10 12 13 13 14 15 16 17 18 17 17 16 18 19 20 20 19 19 19 20 20 20 21 22 23 24 24 24 24 24

GFSNGP_850_spd_033.txt.gz
Wind_Speed
5 5 5 6 6 11 9 6 7 8 9 9 7 6 8 11 11 8 5 4 4 4 4 4 5 7 10 15 16 17 18 19 20 20 19 19 22 23 24 25 26 24 23 23
4 3 5 4 7 10 9 3 8 7 8 10 6 7 4 3 2 4 5 6 6 5 4 3 1 2 4 7 9 10 12 14 16 18 19 21 22 22 21 21 23 24 22 21
4 1 3 5 7 11 5 5 6 8 12 4 5 5 5 8 12 15 17 19 18 16 13 11 8 6 4 3 4 7 9 12 15 18 19 20 21 22 21 23 25 23 21 20
3 1 6 4 1 2 11 6 9 7 6 6 3 7 9 12 18 18 18 19 19 17 14 11 8 6 5 5 6 7 7 9 12 13 13 14 16 17 19 22 24 23 30 29
5 5 4 3 5 7 7 14 10 13 5 6 15 12 6 12 16 18 17 17 16 13 11 10 9 9 8 8 8 7 5 4 4 5 6 9 10 13 17 18 21 20 23 25
3 5 10 5 4 8 5 12 8 13 10 18 16 7 6 15 16 17 16 15 14 14 12 10 10 8 6 8 7 7 8 7 5 3 2 5 7 10 14 15 18 23 24 20
3 4 6 6 5 13 6 13 12 21 21 25 9 3 23 20 18 16 15 15 14 14 11 10 9 7 8 10 12 13 12 9 6 4 2 4 9 13 15 17 12 14 18 20
3 2 8 11 8 10 7 3 12 21 28 23 13 19 27 22 19 17 16 16 15 15 15 14 13 9 13 13 13 10 6 2 1 3 4 4 4 6 9 13 16 18 21 23
9 7 3 25 7 22 7 8 10 25 30 29 25 27 26 24 21 19 18 18 18 17 18 16 13 11 10 11 8 5 4 4 2 3 4 6 8 10 12 15 18 21 24 28
3 5 8 15 24 12 17 13 11 25 35 28 27 29 28 26 24 23 21 20 19 17 17 17 13 11 10 10 8 5 4 3 3 5 7 10 12 14 15 18 21 23 25 27
3 5 3 17 21 22 18 16 16 23 32 29 28 30 28 28 26 25 23 21 19 17 17 16 13 11 10 8 5 2 3 5 7 9 11 13 15 17 18 19 20 22 22 22
6 17 11 14 30 24 20 19 21 27 28 27 27 30 29 28 26 25 24 21 19 17 16 15 12 10 8 5 3 3 5 8 10 13 15 17 18 19 20 21 21 21 21 21
3 9 21 11 18 25 23 23 25 27 29 31 28 29 30 30 28 25 23 21 19 17 15 13 10 6 4 3 4 6 8 11 13 15 18 20 22 23 26 25 25 24 23 23
11 10 9 16 12 23 25 26 26 24 24 26 30 30 30 31 29 26 24 21 18 16 14 10 7 4 3 3 5 8 10 13 15 17 18 20 21 23 24 25 27 26 26 26
16 16 12 21 16 24 24 26 27 28 29 31 30 32 32 32 30 26 23 20 17 14 11 8 5 2 2 4 7 10 12 14 15 16 17 19 20 22 23 25 26 28 29 28
7 6 7 18 25 27 28 29 31 32 32 33 34 33 31 30 28 25 22 17 13 12 9 6 3 0 3 6 9 11 13 14 15 16 17 18 20 21 23 24 25 26 27 29
10 3 9 13 20 23 25 26 29 33 33 34 34 32 31 29 28 24 19 17 13 10 7 4 1 2 5 8 10 12 13 14 15 15 17 18 20 21 22 23 23 24 26 26
1 3 7 12 23 25 24 24 27 29 31 31 31 28 27 26 20 21 17 16 13 9 6 3 2 5 7 9 11 12 13 13 14 15 17 18 19 20 21 21 22 23 25 25
4 6 12 16 20 24 25 26 27 27 29 28 29 27 20 16 14 17 18 14 10 7 4 3 5 7 9 10 11 12 12 13 14 15 16 17 18 19 19 20 21 22 23 25
13 11 13 19 20 21 24 23 25 26 27 26 24 21 17 15 17 16 14 11 8 5 4 5 7 9 10 11 12 13 13 13 14 15 16 17 18 18 18 19 20 22 23 24
15 15 17 18 19 19 20 22 23 25 23 17 15 16 18 19 17 13 11 8 6 5 5 7 8 10 12 13 13 13 13 14 14 15 16 17 17 17 18 19 21 22 23 24
14 15 16 19 22 23 21 20 19 18 16 15 16 18 18 18 15 11 8 5 5 6 7 9 11 12 12 12 13 13 14 14 15 15 16 17 17 18 19 20 21 22 23 24
18 21 22 22 22 22 19 15 13 13 15 15 14 14 12 10 8 5 4 5 6 7 9 11 13 14 14 13 14 14 15 15 15 15 16 16 17 19 20 20 21 22 23 24
20 19 20 19 18 17 18 16 14 12 12 11 9 7 4 3 3 4 5 6 8 9 11 13 15 15 15 15 15 15 16 16 16 16 16 17 18 19 20 20 21 22 22 23
20 19 16 14 14 15 14 12 10 8 5 3 2 3 5 6 7 7 7 8 10 12 14 16 17 17 17 16 16 16 16 16 16 16 17 18 18 19 19 20 21 22 23 23
18 18 17 15 14 11 9 6 4 4 2 0 3 5 7 8 8 8 9 11 12 14 16 17 18 18 17 16 16 17 17 17 17 17 18 19 19 19 19 20 21 22 22 22
20 18 17 16 14 11 7 5 3 2 4 5 7 8 9 10 10 12 12 14 15 16 17 18 18 17 16 16 16 17 18 18 18 19 19 19 19 19 20 21 21 22 22 22

GFSNGP_850_spd_036.txt.gz
Wind_Speed
18 17 16 18 17 15 18 18 15 13 15 12 10 11 8 4 4 4 4 6 7 8 9 7 8 9 9 9 9 8 8 8 11 11 12 12 13 15 17 17 20 21 21 23
17 16 15 17 18 18 19 17 14 18 15 12 15 8 9 6 3 4 6 7 8 8 9 10 10 10 8 6 5 4 4 5 6 6 8 10 11 12 13 14 15 20 25 25
15 7 6 9 16 17 17 15 16 16 16 14 9 12 11 7 5 9 12 13 13 13 13 13 13 11 10 9 7 5 4 2 3 4 5 6 8 10 12 14 17 23 24 26
6 5 8 11 3 17 18 18 18 16 15 12 12 4 5 5 10 12 15 17 17 17 18 17 16 13 11 9 8 6 6 5 4 2 1 3 5 7 9 11 14 16 19 19
5 10 11 4 6 10 12 17 17 19 17 10 8 10 7 9 11 14 15 16 17 17 17 17 15 13 11 10 10 9 9 8 7 7 6 5 4 2 1 2 4 8 13 13
4 8 9 10 13 15 6 16 13 12 15 12 16 9 7 17 16 16 15 16 17 17 17 15 15 13 12 13 12 12 12 12 12 12 11 9 6 4 1 5 10 11 15 18
10 6 6 4 8 15 10 15 3 10 13 19 15 7 23 24 19 16 16 18 17 17 16 15 14 13 13 13 13 13 12 12 10 8 5 2 2 5 6 8 7 7 12 14
7 6 10 14 11 11 14 6 7 10 14 21 14 18 26 25 23 21 20 19 17 17 16 16 15 12 14 13 12 9 6 6 5 3 3 4 3 3 5 6 8 10 13 14
9 7 6 27 19 25 11 10 8 11 14 22 21 25 27 26 24 22 20 19 17 18 18 16 14 13 12 11 8 8 8 9 7 5 3 1 3 4 4 6 8 11 12 12
3 11 12 14 21 11 14 11 8 10 18 26 28 28 27 25 24 23 22 21 21 20 19 17 15 13 11 12 12 11 9 7 4 2 1 3 4 6 6 9 11 11 11 12
10 13 6 14 20 22 16 13 12 12 22 28 28 29 29 28 26 24 24 22 21 20 19 18 16 14 14 14 12 9 7 5 3 0 2 3 6 7 8 10 13 14 14 15
7 13 13 17 13 20 21 22 19 20 23 25 28 31 29 28 27 27 26 24 22 21 20 19 17 16 16 14 11 8 6 3 1 1 3 4 5 5 12 11 11 13 14 16
7 7 8 14 13 12 18 18 20 22 26 32 27 28 29 29 28 28 26 25 24 23 22 21 20 18 15 12 9 7 4 2 1 3 4 6 6 7 6 10 17 18 17 18
17 12 7 9 7 10 14 19 20 17 20 24 27 26 27 27 28 27 26 24 25 25 23 22 20 16 13 10 6 4 2 1 2 4 5 6 7 8 8 10 11 11 15 20
13 13 11 10 8 8 13 15 22 21 23 24 26 28 29 29 28 26 25 26 26 25 23 20 17 14 11 8 5 3 1 3 4 5 6 7 9 10 10 11 12 12 14 14
9 10 10 6 7 9 11 13 11 17 22 24 25 26 26 25 26 24 25 25 24 20 17 16 14 11 8 5 3 2 3 4 5 6 7 8 10 10 11 12 12 12 14 17
3 3 7 10 10 11 11 13 14 15 17 22 23 26 27 27 25 28 30 27 19 16 15 12 10 8 5 2 2 3 4 6 6 7 8 9 11 12 13 14 13 14 16 18
4 2 3 2 9 12 13 15 17 19 20 22 28 32 30 31 29 26 21 21 19 16 13 10 7 4 3 3 4 5 6 7 7 8 9 10 11 13 14 14 15 16 17 18
1 4 6 8 9 15 15 17 22 25 25 25 26 27 26 25 23 23 19 16 14 11 9 6 3 2 3 5 6 7 8 8 9 10 10 12 13 13 14 15 16 17 18 18
6 8 9 10 9 10 15 15 16 21 23 25 25 25 22 19 16 16 16 14 10 6 6 3 3 5 7 8 8 9 9 9 9 11 12 12 13 14 14 16 17 17 17 17
14 14 17 17 18 17 19 20 24 27 26 24 23 21 19 17 15 14 12 8 6 5 4 4 5 8 10 11 11 11 11 11 12 12 13 13 14 14 15 15 16 17 17 17
20 22 24 24 25 26 24 24 24 24 21 18 16 14 14 16 14 10 7 5 4 4 5 7 8 10 12 13 13 13 13 13 13 13 13 13 14 14 15 16 16 17 18 18
27 27 27 27 27 27 24 22 20 17 16 14 13 12 10 9 6 3 2 4 5 6 7 10 12 14 15 15 15 15 14 14 14 14 14 14 14 15 16 16 17 18 19 19
27 27 26 24 22 20 21 18 16 16 14 13 11 7 5 4 3 4 6 7 8 8 10 12 13 15 16 15 15 16 15 14 14 14 13 15 14 15 16 17 18 18 19 20
26 24 22 21 23 22 18 15 13 11 8 7 5 3 2 2 4 5 6 7 8 10 13 14 15 15 16 16 16 16 15 14 14 15 14 14 15 16 17 17 19 20 21 21
24 24 23 21 19 16 14 11 12 11 9 7 5 5 6 6 6 6 7 9 11 13 14 16 16 17 17 15 15 16 16 14 13 13 16 17 17 18 18 19 20 21 21 21
23 21 19 19 18 15 12 10 9 8 6 6 6 7 8 8 9 9 10 11 13 14 15 16 17 17 16 16 16 14 15 14 15 17 18 18 19 19 19 20 20 21 21 21

GFSNGP_850_spd_039.txt.gz
Wind_Speed
24 20 18 21 22 21 22 20 17 17 18 16 16 10 10 6 1 6 9 10 10 11 11 12 13 13 14 14 15 13 13 13 12 14 16 14 13 15 13 13 13 16 20 25
21 22 22 22 19 17 20 20 18 21 20 16 11 11 9 11 7 9 7 8 9 11 12 13 13 15 14 13 13 12 12 11 9 9 8 8 8 12 12 12 13 15 18 21
16 20 20 20 17 19 20 20 17 18 18 15 15 14 12 16 11 11 10 10 11 12 13 14 14 15 15 14 14 14 14 11 10 10 8 8 8 8 9 9 9 9 11 13
10 6 20 11 18 22 23 21 18 19 19 18 18 16 7 6 11 13 14 14 15 16 16 17 17 17 17 16 15 14 13 10 9 8 7 6 6 6 5 4 4 5 8 11
11 12 15 18 21 12 15 16 18 18 16 18 17 1 6 8 11 15 17 19 19 18 19 19 18 18 18 17 15 14 13 11 10 9 9 9 9 8 7 7 5 4 4 9
6 16 19 11 20 16 14 16 16 16 14 9 7 7 11 20 19 19 19 20 21 20 19 18 17 17 18 17 16 15 14 13 13 13 12 12 10 10 11 10 8 5 5 7
12 10 8 10 14 14 13 8 2 7 7 10 9 14 7 24 22 23 22 21 20 19 18 18 18 18 18 17 16 16 15 15 14 12 11 10 8 6 4 2 3 2 3 3
9 11 15 4 10 14 15 22 9 11 13 11 12 10 22 25 27 27 26 23 21 20 19 18 18 18 18 17 17 15 14 12 11 9 8 9 8 6 5 3 2 1 3 3
7 4 10 19 19 22 22 17 12 14 14 12 16 21 24 27 28 27 25 24 21 20 20 18 17 17 18 17 15 12 12 12 12 11 9 7 6 4 4 2 1 3 4 4
13 10 13 13 20 21 15 20 17 14 14 15 22 24 26 27 28 27 25 24 22 22 21 20 18 17 16 15 14 14 14 13 11 10 8 6 5 4 2 2 3 4 4 5
17 20 23 26 17 20 21 16 16 13 14 18 22 26 29 29 29 27 26 24 23 22 21 20 19 17 15 15 14 14 13 11 9 9 7 5 5 3 3 7 7 7 9 9
8 13 9 17 13 12 16 21 17 16 16 20 24 27 29 29 28 28 27 25 24 22 21 20 18 17 16 14 14 13 12 10 9 8 7 4 3 6 6 8 8 9 11 11
17 14 13 15 15 14 14 15 14 16 18 20 23 26 29 27 27 26 25 24 23 22 21 20 18 16 14 14 13 12 10 9 8 5 4 4 2 2 2 11 13 14 14 15
17 9 11 14 8 10 8 10 11 13 15 18 20 22 24 23 24 24 23 22 21 21 20 19 18 16 14 13 13 12 9 8 5 3 2 2 2 3 3 4 4 6 13 16
9 10 14 14 11 10 7 9 7 12 14 17 21 24 25 24 24 22 21 22 21 20 19 18 18 15 13 11 9 9 7 5 4 4 5 6 5 4 5 5 6 7 8 9
11 10 10 10 10 8 6 6 9 11 12 14 15 18 20 19 20 23 22 21 22 20 21 21 18 14 11 8 5 5 4 4 4 5 6 5 5 5 6 7 7 7 8 10
11 9 11 9 7 4 4 4 8 13 12 16 20 18 21 30 32 30 26 26 25 24 21 16 11 8 8 8 5 2 3 4 6 6 7 8 7 7 9 9 8 7 9 13
8 6 9 6 1 2 4 7 9 13 19 19 25 31 33 34 30 25 26 24 20 20 18 13 9 9 7 5 6 6 7 7 8 9 9 10 10 10 10 10 9 9 10 11
5 7 7 8 7 10 13 15 17 18 21 25 30 31 26 21 26 30 26 22 18 15 13 10 8 5 6 6 6 7 8 9 9 10 10 12 10 10 9 9 9 11 11 11
11 10 11 11 10 9 15 15 15 18 18 19 22 24 27 26 24 24 22 20 15 12 11 8 5 5 5 6 8 8 9 10 10 11 12 12 10 12 10 12 12 11 11 12
22 21 21 22 21 21 23 21 23 24 24 27 29 29 27 23 18 15 13 13 10 7 5 2 4 6 6 7 8 9 10 11 11 11 11 10 10 10 11 11 11 12 12 13
26 27 28 28 28 29 26 25 26 26 25 23 22 21 20 18 13 10 6 4 4 2 1 4 5 7 10 11 11 11 11 11 12 11 10 11 11 11 11 12 12 13 13 13
32 31 31 32 32 31 28 26 25 24 24 21 18 15 13 12 9 7 4 2 1 2 4 7 9 10 11 11 11 11 10 10 10 11 11 11 12 13 13 13 14 14 14 14
30 28 28 25 24 25 27 23 22 20 18 16 13 12 10 8 4 3 2 2 2 3 7 9 11 12 13 11 10 11 11 10 11 11 12 14 13 13 14 14 14 14 15 15
26 26 24 24 24 22 20 18 19 18 15 14 11 9 7 5 2 2 2 3 4 4 9 13 14 13 12 10 11 12 11 11 12 13 13 13 13 14 14 15 15 15 17 18
22 22 22 22 20 18 17 15 15 14 13 11 10 9 9 8 6 5 6 6 8 7 8 10 12 14 10 11 12 13 12 13 13 12 14 14 14 15 16 16 16 16 17 18
20 18 17 18 17 16 15 14 13 13 11 11 9 9 8 8 8 6 6 7 7 9 9 10 11 13 13 13 13 12 13 13 14 15 15 15 15 15 15 15 15 18 20 20

GFSNGP_850_spd_042.txt.gz
Wind_Speed
20 19 19 18 19 19 20 22 15 15 16 15 16 12 7 30 7 6 6 5 10 9 15 14 14 16 16 17 19 16 19 23 25 26 30 27 25 22 20 20 19 20 21 22
21 21 20 23 19 22 19 20 20 18 19 16 16 7 3 24 9 11 10 9 10 14 17 15 15 16 20 23 24 19 19 22 23 21 17 14 15 17 17 17 15 14 15 17
16 17 14 21 19 17 17 19 13 16 12 10 14 8 22 27 15 16 12 8 9 13 18 20 18 21 20 19 19 17 18 18 14 13 14 16 16 16 14 13 12 11 12 12
7 1 21 11 14 16 16 15 16 18 15 13 14 17 13 3 3 9 11 13 13 15 17 20 20 19 20 18 20 20 17 16 17 17 15 14 13 13 13 13 12 10 10 9
4 14 17 17 17 12 13 17 20 22 18 17 20 21 4 5 7 10 16 19 19 19 21 22 24 23 24 23 22 21 19 17 15 14 13 13 12 12 11 10 10 9 7 6
3 11 16 6 12 18 15 16 14 13 13 13 15 5 5 14 11 16 20 20 21 22 23 24 24 25 26 23 22 20 19 17 16 14 12 13 13 12 12 12 12 11 9 8
8 7 5 7 13 22 19 8 9 13 15 15 3 2 7 10 17 20 23 24 24 24 25 25 25 25 25 24 22 20 18 17 16 16 15 12 11 12 12 10 7 7 7 5
5 4 11 8 9 15 8 29 13 16 15 8 5 4 9 23 25 25 25 25 26 26 25 24 24 25 24 23 21 21 21 20 18 14 11 10 11 12 10 10 11 6 7 6
6 3 19 31 20 22 16 15 15 17 12 12 7 13 20 25 26 27 27 28 26 26 26 24 22 23 23 23 23 23 20 16 13 15 15 14 12 12 11 10 12 12 9 8
2 7 17 30 22 17 20 19 23 18 13 12 10 19 23 25 27 29 29 29 27 26 25 24 22 22 24 24 21 18 19 19 19 18 17 14 14 13 14 13 11 9 9 10
12 13 17 31 21 16 18 15 17 16 13 10 12 24 27 27 29 29 29 28 27 27 25 23 22 22 18 17 19 21 21 21 20 19 17 18 15 13 12 8 9 10 11 12
5 12 3 6 21 15 15 18 21 16 14 15 15 19 23 26 27 27 28 27 25 24 25 23 20 19 18 18 19 21 21 19 18 19 14 7 8 8 7 8 9 9 9 11
5 14 21 18 22 17 12 16 17 18 12 14 11 14 21 23 26 26 25 25 24 24 23 23 21 19 17 17 18 20 20 18 18 16 15 14 11 6 6 8 9 9 10 11
12 10 10 6 7 12 14 12 8 15 11 13 14 16 20 22 23 24 25 23 24 25 25 24 25 23 22 22 22 18 14 13 12 11 10 9 10 11 12 11 9 10 11 15
14 10 9 12 13 12 13 10 12 12 8 10 12 19 22 24 23 20 19 21 24 26 24 24 23 18 16 17 17 17 16 13 10 7 6 7 8 9 9 8 8 8 8 10
14 10 10 10 10 9 9 9 8 4 1 5 12 16 19 21 22 24 25 27 28 23 23 23 22 21 18 15 14 10 6 3 5 6 6 7 7 8 8 9 9 8 9 12
15 16 16 14 10 8 9 7 3 4 7 12 16 24 28 31 31 31 30 30 30 25 19 18 19 17 13 9 11 9 6 6 5 5 7 7 8 9 10 10 10 10 11 17
9 9 8 10 9 8 8 8 6 8 11 14 19 23 26 27 31 29 27 22 20 21 19 15 14 13 11 7 4 3 4 5 6 7 9 10 10 11 12 12 12 12 13 15
10 10 10 11 12 12 12 12 10 10 13 14 18 22 24 24 23 21 18 18 21 21 16 13 11 8 6 2 1 3 4 7 8 10 10 12 11 11 13 12 14 16 15 14
21 19 19 20 19 20 21 19 18 16 17 17 22 24 23 23 23 24 22 19 14 13 10 7 4 2 1 3 6 7 8 8 9 11 13 13 12 14 15 12 14 14 13 15
28 28 28 28 27 25 23 21 21 23 22 21 22 25 26 23 18 15 12 13 11 7 4 2 1 3 4 5 8 9 11 12 13 12 12 13 13 13 12 14 14 15 16 16
32 34 33 33 34 33 30 29 28 27 27 26 23 23 21 17 13 11 10 8 7 4 3 4 5 6 8 9 9 10 11 11 12 12 11 12 14 14 15 14 16 17 17 19
34 33 33 33 33 32 30 28 27 26 25 22 20 17 16 14 10 9 9 7 5 2 4 6 7 9 9 9 10 10 10 13 11 12 14 14 14 16 17 16 17 18 18 16
29 29 29 28 27 28 29 25 24 22 20 18 16 15 13 9 9 8 5 3 3 4 8 9 10 11 11 10 10 11 11 12 12 12 13 15 14 15 16 17 19 19 18 20
26 25 25 26 26 24 22 20 21 19 16 16 14 12 9 7 6 6 6 5 4 4 9 14 14 14 10 10 11 12 13 14 15 17 16 14 14 15 17 18 18 21 21 24
22 22 22 20 20 18 16 15 15 17 16 14 13 12 11 9 7 8 10 8 9 9 9 9 14 15 14 14 15 14 13 14 16 16 16 18 18 18 17 17 20 21 22 23
19 18 17 19 18 16 14 13 13 13 11 11 8 7 6 6 6 5 5 7 9 7 9 12 12 13 14 16 16 15 16 15 15 17 19 19 18 18 18 19 20 22 23 22

GFSNGP_850_spd_048.txt.gz
Wind_Speed
10 15 14 11 14 12 10 6 9 7 9 12 10 9 16 26 20 16 16 23 26 29 28 32 35 31 28 31 49 52 49 46 52 44 42 44 42 43 44 42 39 28 24 26
9 11 15 17 11 16 16 7 6 11 8 9 18 21 8 24 28 24 22 26 30 32 30 29 28 25 22 20 27 41 46 45 46 46 42 37 36 34 27 33 31 27 26 24
6 4 4 9 22 13 5 5 6 7 9 9 8 9 14 25 28 26 24 24 27 31 30 31 32 30 27 23 23 28 35 41 45 42 37 32 29 28 30 31 29 26 26 25
4 4 15 13 6 8 13 11 8 5 5 7 10 21 17 26 34 37 31 28 28 29 31 35 33 30 27 25 26 27 33 36 35 35 34 32 31 30 26 25 24 22 22 19
5 4 8 9 6 5 10 20 8 9 8 7 18 8 7 15 25 34 35 30 33 33 31 32 33 32 29 28 28 27 29 30 30 30 30 30 28 24 22 20 19 18 18 19
4 3 5 5 8 12 2 4 5 5 9 9 8 2 6 17 19 22 27 27 28 24 26 32 33 32 31 30 28 26 26 26 27 28 26 24 23 22 22 19 20 20 19 18
4 4 8 10 16 9 7 6 14 16 17 7 4 7 20 17 24 22 20 19 18 22 25 31 33 32 30 27 25 23 22 24 24 23 22 21 22 21 20 21 21 21 22 21
3 3 9 9 16 5 2 4 11 17 19 19 25 18 9 13 22 23 25 24 23 24 28 31 31 30 27 25 23 23 24 23 22 21 21 20 19 20 20 21 23 23 22 23
6 6 7 19 6 3 3 7 10 17 21 25 24 16 20 21 22 26 24 22 24 25 27 27 27 24 24 24 24 23 22 21 20 19 17 17 18 19 20 20 21 22 23 23
1 9 14 16 16 13 2 5 6 11 20 22 25 13 18 20 25 26 26 24 23 25 25 26 25 24 23 24 24 22 21 19 18 18 18 16 16 16 18 20 20 20 21 21
6 7 7 16 17 15 10 5 12 11 13 20 16 16 17 21 26 26 23 23 24 25 26 26 25 24 23 23 22 20 20 21 21 19 19 19 20 18 18 19 17 16 17 17
4 10 11 13 18 20 11 6 7 8 11 16 21 13 21 21 22 24 25 26 26 26 26 25 23 21 21 21 20 20 22 21 20 20 21 20 21 21 21 18 16 14 13 14
8 23 13 9 14 9 6 6 8 10 14 11 19 20 24 22 27 26 26 27 27 28 27 26 25 24 22 21 21 20 20 20 20 21 21 20 18 15 15 14 14 12 12 13
20 18 10 19 10 10 9 7 6 6 8 11 18 15 15 17 22 28 30 30 30 29 28 28 27 24 21 19 18 20 21 21 22 20 18 14 11 9 8 6 8 10 11 10
17 17 11 5 7 12 11 7 7 8 7 5 2 11 17 26 28 26 27 31 32 31 29 26 26 25 23 24 24 23 21 19 16 14 11 9 7 10 13 12 11 11 11 12
10 7 10 14 13 13 12 13 13 13 11 9 11 17 23 26 28 29 29 30 33 32 30 29 29 26 24 22 19 15 12 11 13 13 13 14 13 12 12 10 9 10 13 15
6 11 14 14 14 15 16 15 14 14 14 13 15 18 22 27 29 29 29 30 32 32 26 21 19 14 10 9 8 9 9 9 8 8 8 8 8 8 8 10 12 13 13 14
9 8 7 7 9 13 15 16 15 15 18 19 20 22 26 28 35 33 29 24 22 22 20 17 13 10 9 8 6 6 5 4 3 3 3 4 6 8 10 11 12 12 13 14
14 15 16 18 17 17 18 18 19 20 20 21 24 30 31 30 27 26 22 21 21 21 19 14 12 10 9 8 6 5 3 2 1 2 4 5 7 7 8 9 11 13 15 15
25 25 25 26 26 27 28 27 28 29 28 27 28 28 29 26 23 23 21 27 23 21 15 13 11 10 10 8 6 6 5 5 5 5 6 7 8 7 9 10 10 9 11 13
30 31 32 31 31 30 30 29 28 29 28 27 29 29 28 25 22 21 22 25 20 15 13 12 10 10 9 8 8 7 7 7 7 7 7 8 8 9 11 12 13 13 14 16
32 33 32 32 33 32 30 29 29 28 28 28 27 26 25 24 22 22 22 20 16 13 11 11 10 9 7 8 8 8 8 8 9 9 9 10 11 11 12 13 14 15 15 16
31 30 29 29 29 28 25 25 24 23 24 22 21 19 19 18 17 15 16 13 10 11 12 13 11 9 7 9 9 9 10 10 10 10 10 12 13 13 13 13 14 17 19 19
26 25 24 23 22 23 24 22 21 20 20 19 18 17 15 14 16 15 12 9 9 9 11 11 11 10 10 10 11 11 11 11 10 10 11 12 13 15 17 19 21 20 19 19
19 19 18 18 20 20 18 16 17 16 15 16 15 14 13 12 11 11 8 9 9 10 11 12 14 14 14 14 14 13 12 12 13 14 15 16 17 19 20 20 20 20 21 22
16 17 17 17 16 14 14 10 13 13 11 12 12 11 9 8 7 6 7 8 9 9 11 12 13 13 13 14 15 15 16 16 16 17 16 15 16 19 20 21 19 19 21 22
14 14 13 14 13 11 9 8 7 10 8 7 7 7 6 5 5 5 5 6 8 11 12 11 12 13 14 15 14 13 13 14 16 16 17 19 20 20 19 18 19 20 21 22